Regional Weather Roundup
Issued by NWS Nashville, TN

Home | Current Version | Previous Version | Text Only | Print | Product List | Glossary On
Versions: 1 2 3 4 5 6 7 8 9 10 11 12 13 14 15 16 17 18 19 20 21 22 23 24 25 26 27 28
000
ASUS44 KOHX 230110
RWROHX
MIDDLE TENNESSEE HOURLY WEATHER ROUNDUP
NATIONAL WEATHER SERVICE NASHVILLE TN
800 PM CDT SUN OCT 22 2017

NOTE: "FAIR" INDICATES FEW OR NO CLOUDS BELOW 12,000 FEET WITH
NO SIGNIFICANT WEATHER AND/OR OBSTRUCTIONS TO VISIBILITY.

* THESE REPORTS ARE NOT UNDER NWS QUALITY CONTROL AND MAY NOT
  REPORT WEATHER SUCH AS PRECIPITATION AND FOG.


TNZ005>011-023>034-057-059-062>066-078-080-230200
...NORTHERN MIDDLE TENNESSEE...

CITY           SKY/WX    TMP DP  RH WIND       PRES   REMARKS
CLARKSVILLE    CLOUDY    72  61  68 S5        29.96S
CROSSVILLE     MOCLDY    66  57  72 VRB5      30.13F
GALLATIN       PTCLDY    73  61  64 SE7       30.03F
DICKSON          N/A     70  62  75 SE7       29.97F
NASHVILLE      CLOUDY    74  61  63 SE9       29.99F
PORTLAND       MOCLDY    72  61  68 S9G15     30.00S
SMYRNA         CLOUDY    72  62  71 SE9       30.01F
SPARTA         PTCLDY    70  61  73 SE7G14    30.06S
SPRINGFIELD    CLOUDY    73  61  64 VRB7G14   29.96F
WEST NASHVILLE CLOUDY    75  61  60 SE9       29.96F
$$
TNZ056-058-060-061-075>077-079-093>097-230200
...SOUTHERN MIDDLE TENNESSEE...

CITY           SKY/WX    TMP DP  RH WIND       PRES   REMARKS
COLUMBIA       CLOUDY    73  63  68 SE9G16    29.96F
FAYETTEVILLE   PTCLDY    72  64  78 SE13      30.02F
MURFREESBORO   CLOUDY    73  61  66 SE9       30.00F
PULASKI        CLOUDY    73  64  73 SE9       29.99F
SHELBYVILLE    PTCLDY    72  63  73 SE9       30.01F
TULLAHOMA      PTCLDY    70  59  68 SE9       30.05F
WINCHESTER     CLEAR     72  63  73 SE9         N/A
$$


...KEY TO REMARKS...
VSB - VISIBILITY IN MILES
WCI - WIND CHILL INDEX
HX  - HEAT INDEX





USA.gov is the U.S. government's official web portal to all federal, state and local government web resources and services.